"Pseudo-MPEC" for C0E4LT5

Created 2022 Nov 25 13:22:04 UT using Find_Orb

Click here for an explanation of pseudo-MPECs

 
 Astrometry: 
     C0E4LT5* C2022 11 23pyBR:j6UG*^G1-nfJ8GA@4%?KrjbiD_EvSigoD4yxMFcZ;O^-Q%'V00
     C0E4LT5  C2022 11 23?*FjWj-hlyeEhRof@nAstrometryGo'(dV@KaFR'*RK;vX;e$n*$V00
     C0E4LT5  C2022 11 23\6sVA@$jG`.XYseTeqH8v3=j=A'Sn)c5$AZ%[h71vg?a9EBa^NU.V00
     C0E4LT5  C2022 11 23Ev5RDs;3Q7mVr6nh8YeYredacted;xLxH36f;ku`Ad8clicke].RV00
     C0E4LT5 KC2022 11 23.46925 04 06 48.48 +22 55 51.4    ~BNC7 21.4 RoNEOCP291
     C0E4LT5 KC2022 11 23.47531 04 06 51.41 +22 55 47.4    ~BNC7 21.8 RoNEOCP291
     C0E4LT5 KC2022 11 23.48132 04 06 54.22 +22 55 43.3    ~BNC7 21.8 RoNEOCP291
     C0E4LT5 KC2022 11 23.48953804 06 58.160+22 55 35.10   ~BNCb 21.82GVNEOCPI52
     C0E4LT5 KC2022 11 23.49495904 07 00.750+22 55 31.70   ~BNCb 21.79GVNEOCPI52
     C0E4LT5 KC2022 11 23.50036704 07 03.380+22 55 27.60   ~BNCb 21.18GVNEOCPI52
     C0E4LT5 mC2022 11 24hyFEK\m:NY-X_ZV.GFtckI#24pQKX*:W*9(@`vnfUUD;5UI7UwTGV00
     C0E4LT5 mC2022 11 24GW35'?:_I.-GyMaOA'+P@[IW617GBK6JjQcmhere_ZaY'.*mR0mrV00
     C0E4LT5 mC2022 11 24EpO5q:Mr7x/;B:$5S8inqJqZL!'$1uw0EEur5fJx'F8_5Ex$:I(1V00
     C0E4LT5 mC2022 11 24]TfeYQ:0fora_j,V?YE+)C2*5L?Z$xtMexplanation_1[KPnDXcV00
     C0E4LT5 KC2022 11 25.23912404 19 51.210+22 42 07.60   ~BP6M       VNEOCPV06
     C0E4LT5 KC2022 11 25.24222704 19 52.220+22 42 06.70   ~BP6M       VNEOCPV06
     C0E4LT5 KC2022 11 25.24533304 19 53.260+22 42 06.20   ~BP6M 21.81GVNEOCPV06

Station data:
(291) LPL/Spacewatch II  (N31.961669 W111.599905)  US/Arizona.  Observers J.
   V. Scotti, R. S. McMillan. 1.8-m f/2.7 reflector + CCD.
(I52) Steward Observatory, Mt. Lemmon Station  (N32.442544 W110.788920)
   US/Arizona.  Observers T. A. Pruyne, B. M. Africano, E. J. Christensen, G.
   A. Farneth, D. C. Fuls, A. R. Gibbs, A. D. Grauer, H. Gröller, J. A.
   Johnson, R. A. Kowalski, S. M. Larson, G. J. Leonard, D. Rankin, R. L.
   Seaman, F. C. Shelly, K. W. Wierzchoś. 1.0-m reflector + CCD.
(V00) Kitt Peak-Bok  (N31.963125 W111.600190)  US/Arizona.  Observers T. A.
   Pruyne, B. M. Africano, E. J. Christensen, G. A. Farneth, D. C. Fuls, A.
   R. Gibbs, A. D. Grauer, H. Gröller, J. A. Johnson, R. A. Kowalski, S. M.
   Larson, G. J. Leonard, D. Rankin, R. L. Seaman, F. C. Shelly, K. W.
   Wierzchoś. 2.25-m reflector + CCD.
(V06) Catalina Sky Survey-Kuiper  (N32.416844 W110.732550)  US/Arizona.
   Observers T. A. Pruyne, B. M. Africano, E. J. Christensen, G. A. Farneth,
   D. C. Fuls, A. R. Gibbs, A. D. Grauer, H. Gröller, J. A. Johnson, R. A.
   Kowalski, S. M. Larson, G. J. Leonard, D. Rankin, R. L. Seaman, F. C.
   Shelly, K. W. Wierzchoś. 1.55-m reflector + CCD.

Orbital elements:  C0E4LT5
   Perihelion 2022 Oct 19.75434 +/- 0.0149 TT = 18:06:14 (JD 2459872.25434)
Epoch 2022 Nov 25.0 TT = JDT 2459908.5   Earth MOID: 0.0070   Ma: 0.0586
M  12.69521639 +/- 0.10             (J2000 ecliptic)          AutoNEOCP
n   0.35025476 +/- 0.00272          Peri.  131.33075 +/- 0.030
a   1.99318072 +/- 0.0103           Node   247.37341 +/- 0.0028
e   0.5201576 +/- 0.00256           Incl.    1.05770 +/- 0.0041
P   2.81                   H 27.6   G  0.15   U  8.8
q 0.95641250 +/- 0.000184    Q 3.02994893 +/- 0.0208
From 17 observations 2022 Nov. 23-25 (44.9 hr); mean residual 0".21
Residuals in arcseconds: 
221123 V00  .16+  .15-    221123 291  .27-  .30+    221124 V00  .01+  .00     
221123 V00  .20+  .05-    221123 I52  .01+  .33-    221124 V00  .10-  .13-    
221123 V00  .19-  .07+    221123 I52  .20-  .22+    221125 V06  .26+  .37-    
221123 V00  .16-  .02+    221123 I52  .14+  .08+    221125 V06  .14-  .13-    
221123 291  .19-  .23-    221124 V00  .10+  .02-    221125 V06  .12-  .53+    
221123 291  .49+  .08+    221124 V00  .00   .05+    

Ephemerides (geocentric):
Date (UTC) HH   RA             Dec           delta  r     elong  mag " sig PA
---- --------  ------------   ------------  ------ ------ -----  --- --------
2022 11 25 13  04 21 39.573   +22 40 08.58  .07364 1.0606 175.4 22.4 .274 106
2022 11 25 14  04 21 54.549   +22 39 48.93  .07386 1.0608 175.3 22.4 .282 105
2022 11 25 15  04 22 09.430   +22 39 29.30  .07409 1.0610 175.3 22.4 .289 104
2022 11 25 16  04 22 24.218   +22 39 09.70  .07432 1.0612 175.3 22.4 .297 104
2022 11 25 17  04 22 38.914   +22 38 50.12  .07454 1.0615 175.3 22.4 .305 103
2022 11 25 18  04 22 53.518   +22 38 30.58  .07477 1.0617 175.3 22.5 .312 102
2022 11 25 19  04 23 08.031   +22 38 11.06  .07500 1.0619 175.3 22.5 .319 102
2022 11 25 20  04 23 22.455   +22 37 51.57  .07523 1.0621 175.3 22.5 .327 101
2022 11 25 21  04 23 36.788   +22 37 32.11  .07545 1.0623 175.3 22.5 .334 101
2022 11 25 22  04 23 51.033   +22 37 12.68  .07568 1.0626 175.3 22.5 .341 100
2022 11 25 23  04 24 05.191   +22 36 53.29  .07591 1.0628 175.3 22.5 .348 100
2022 11 26 00  04 24 19.261   +22 36 33.92  .07614 1.0630 175.3 22.5 .355  99
2022 11 26 01  04 24 33.245   +22 36 14.58  .07636 1.0632 175.3 22.5 .362  99
2022 11 26 02  04 24 47.143   +22 35 55.28  .07659 1.0634 175.3 22.5 .369  98
2022 11 26 03  04 25 00.956   +22 35 36.02  .07682 1.0636 175.2 22.5 .376  98
2022 11 26 04  04 25 14.685   +22 35 16.78  .07705 1.0639 175.2 22.5 .383  98
2022 11 26 05  04 25 28.330   +22 34 57.58  .07728 1.0641 175.2 22.5 .389  97
2022 11 26 06  04 25 41.893   +22 34 38.42  .07751 1.0643 175.2 22.5 .396  97
2022 11 26 07  04 25 55.373   +22 34 19.29  .07773 1.0645 175.2 22.5 .402  97
2022 11 26 08  04 26 08.772   +22 34 00.19  .07796 1.0647 175.2 22.6 .409  96
2022 11 26 09  04 26 22.090   +22 33 41.13  .07819 1.0650 175.2 22.6 .415  96
2022 11 26 10  04 26 35.328   +22 33 22.11  .07842 1.0652 175.2 22.6 .421  96
2022 11 26 11  04 26 48.486   +22 33 03.13  .07865 1.0654 175.2 22.6 .427  95
2022 11 26 12  04 27 01.565   +22 32 44.18  .07888 1.0656 175.2 22.6 .433  95
2022 11 26 13  04 27 14.567   +22 32 25.27  .07911 1.0658 175.2 22.6 .439  95
2022 11 26 14  04 27 27.490   +22 32 06.40  .07934 1.0661 175.2 22.6 .445  95
2022 11 26 15  04 27 40.337   +22 31 47.57  .07957 1.0663 175.2 22.6 .451  94
2022 11 26 16  04 27 53.108   +22 31 28.78  .07980 1.0665 175.2 22.6 .457  94
2022 11 26 17  04 28 05.802   +22 31 10.03  .08003 1.0667 175.2 22.6 .462  94
2022 11 26 18  04 28 18.422   +22 30 51.32  .08026 1.0670 175.2 22.6 .468  94
2022 11 26 19  04 28 30.967   +22 30 32.64  .08049 1.0672 175.2 22.6 .473  94
2022 11 26 20  04 28 43.438   +22 30 14.01  .08072 1.0674 175.2 22.6 .479  93
2022 11 26 21  04 28 55.836   +22 29 55.42  .08095 1.0676 175.2 22.6 .484  93
2022 11 26 22  04 29 08.162   +22 29 36.87  .08118 1.0678 175.2 22.7 .490  93
2022 11 26 23  04 29 20.415   +22 29 18.36  .08141 1.0681 175.2 22.7 .495  93
2022 11 27 00  04 29 32.596   +22 28 59.90  .08164 1.0683 175.2 22.7 .500  93
2022 11 27 01  04 29 44.707   +22 28 41.47  .08188 1.0685 175.2 22.7 .505  92
2022 11 27 02  04 29 56.747   +22 28 23.09  .08211 1.0687 175.2 22.7 .510  92
2022 11 27 03  04 30 08.718   +22 28 04.75  .08234 1.0690 175.2 22.7 .515  92
2022 11 27 04  04 30 20.619   +22 27 46.45  .08257 1.0692 175.2 22.7 .520  92
2022 11 27 05  04 30 32.451   +22 27 28.20  .08280 1.0694 175.2 22.7 .524  92
2022 11 27 06  04 30 44.215   +22 27 09.99  .08303 1.0696 175.2 22.7 .529  92
2022 11 27 07  04 30 55.911   +22 26 51.82  .08327 1.0698 175.2 22.7 .534  91
2022 11 27 08  04 31 07.541   +22 26 33.70  .08350 1.0701 175.2 22.7 .538  91
2022 11 27 09  04 31 19.103   +22 26 15.62  .08373 1.0703 175.2 22.7 .543  91
2022 11 27 10  04 31 30.600   +22 25 57.59  .08396 1.0705 175.2 22.7 .547  91
2022 11 27 11  04 31 42.031   +22 25 39.60  .08420 1.0707 175.2 22.7 .552  91
2022 11 27 12  04 31 53.396   +22 25 21.65  .08443 1.0710 175.2 22.7 .556  91